STARLINK-3114, 49426

Orbit data source: Space-Track

STARLINK-3114, 49426 is a payload satellite owned by SpaceX/Seattle (US) in LEO that was launched on Sat, 13 Nov 2021 UTC via an FALCON 9 launch vehicle from the Air Force Eastern Test Range (AFETR). Payload-class satellites include a variety of spacecraft equipped with specific instruments for various scientific and technological missions. These include communications satellites like Starlink; space stations such as the ISS; scientific satellites like the Hubble; Earth observation satellites from companies like Planet Labs, Umbra, and HawkEye 360; GPS; miniature CubeSats for education and research; and military/defense satellites.

Loading next visibility...
Identifier
49426, 2021-104U
Orbit
LEO
Country
Flag of USUS
Related business
Manufacturer
SpaceX/Seattle
Mission
Operational Commercial Communications
Bus & Motor
STARLINK, Unknown motor
Mass
290 kg wet, ~270 kg dry
Launch date (UTC)
2021-11-13 (5 years ago)
Launch vehicle
FALCON 9
Launch site
Air Force Eastern Test Range (AFETR)
Object type
Payload
Rocket body
Debris
Shape & HBR
Box + 1 Pan, 10.1 m
Radar Cross Section
13.562 m², Large (>1 m²)

Expand to show TLE details & history
Last TLE update: 1 week ago

TLE from 1 week ago
0 STARLINK-3114
1 49426U 21104U   26154.46337674  .00001512  00000-0  11308-3 0  9996
2 49426  53.1822 204.0434 0001149  75.5388 284.5731 15.08839886251572
Epoch: 2026-06-03T11:07Z
TLE epoch observation values (Epoch: 2026-06-03T11:07:15.750Z)
Latitude
-0.00003°
Longitude
145.30612°
Altitude
540.438 km
Speed
7.593 km/s
True Right ascension
13h 36m 10s
True Declination
0° 00' 00"
Sunlit
Object was in full shadow at epoch
Visualization orbit readout
Latitude
Unknown
Longitude
Unknown
Altitude
Unknown
Speed
Unknown
Apparent Right ascension
Unknown
Apparent Declination
Unknown
Sunlit
N/A
Visualization observer readout
Local Sidereal Time
14:54:10
Azimuth
Unknown
Elevation
Unknown
Doppler factor
Unknown
Orbital elements
Apogee altitude
540.789 km
Perigee altitude
539.199 km
Semi-major axis
6,918.131 km
Eccentricity
0.00011
Inclination
53.1822°
RAAN
204.0434°
Arg. of periapsis
75.5388°
True anomaly
284.56036°
Mean anomaly
284.5731°
Eccentric anomaly
284.56673°
Mean motion
3.7719 °/min
Orbital period
95.44 mins
BSTAR
0.00011308
Loading maneuver chart data...
Computing Atmospheric mass density...
Loading historical data...
Loading historical data...
Loading historical data...
Loading historical data...
Loading historical data...
Loading historical data...
Loading historical data...

Documentation

Showing up to 5 results
|